Regional Weather Roundup
Issued by NWS

Home | Current Version | Previous Version | Graphics & Text | Print | Product List | Glossary Off
Versions: 1 2 3 4 5 6 7 8 9 10 11 12 13 14 15 16 17 18 19 20 21 22 23 24 25 26 27 28 29 30 31 32 33 34 35 36 37 38 39 40 41 42 43 44 45 46 47 48 49 50

000
ASUS44 KMEG 281500
RWRTN
TENNESSEE HOURLY STATE WEATHER ROUNDUP
NATIONAL WEATHER SERVICE MEMPHIS TN
1000 AM CDT THU MAY 28 2015

TNZ002-004-019-021-049-052-054-088>092-281600-
WEST TENNESSEE

CITY           SKY/WX    TMP DP  RH WIND       PRES   REMARKS
MEMPHIS INTL   CLOUDY    75  64  68 SE7       30.15F
NWS MEMPHIS      N/A     75 N/A N/A MISG        N/A
JACKSON        CLOUDY    69  65  86 CALM      30.18F
DYERSBURG      CLOUDY    68  55  64 CALM      30.17F
PARIS          MOSUNNY   72  64  78 VRB5      30.19F
LEXINGTON      CLOUDY    70  64  83 SE5       30.19F
$$

TNZ008-025-027-028-033-062-065-066-281600-
NORTH MIDDLE TENNESSEE

CITY           SKY/WX    TMP DP  RH WIND       PRES   REMARKS
NASHVILLE      PTSUNNY   73  66  78 SE3       30.22F
CLARKSVILLE    PTSUNNY   73  66  78 SE5       30.20F
COOKEVILLE     PTSUNNY   70  66  88 CALM      30.23S
CROSSVILLE     CLOUDY    68  63  84 E5        30.27S
$$

TNZ061-075-076-078-094-096-097-281600-
SOUTH MIDDLE TENNESSEE

CITY           SKY/WX    TMP DP  RH WIND       PRES   REMARKS
FAYETTEVILLE   SUNNY    N/A N/A N/A MISG      30.23S
TULLAHOMA      SUNNY     70  64  83 CALM      30.24S
WINCHESTER     MOSUNNY   70  64  83 E3        30.23S
MCMINNVILLE    MOSUNNY   73  68  83 VRB3      30.23S
COLUMBIA       MOSUNNY   72  68  88 CALM      30.20F
SHELBYVILLE    SUNNY     77  70  78 VRB5      30.24R
$$

TNZ017-018-042-046-047-281600-
NORTHEAST TENNESSEE

CITY           SKY/WX    TMP DP  RH WIND       PRES   REMARKS
TRI CITIES     MOSUNNY   76  63  64 SE3       30.26F
ELIZABETHTON   SUNNY     75  64  69 S3        30.26F
$$

TNZ012-013-036-069-073-074-281600-
CENTRAL EAST TENNESSEE

CITY           SKY/WX    TMP DP  RH WIND       PRES   REMARKS
KNOXVILLE      CLOUDY    79  62  56 CALM      30.23F
OAK RIDGE      CLOUDY    75  66  73 CALM      30.24F
GATLINBURG       N/A     77  63  61 CALM      30.23S
$$

TNZ083-085-099-281600-
SOUTHEAST TENNESSEE

CITY           SKY/WX    TMP DP  RH WIND       PRES   REMARKS
CHATTANOOGA    LGT RAIN  72  64  76 SE3       30.24R
$$

SKY/WX REPORTED AS FAIR MEANS FEW OR NO CLOUDS BELOW
12 THOUSAND FEET.



USA.gov is the U.S. government's official web portal to all federal, state and local government web resources and services.